DateTimeUTC,F1_A11,F1_S11,BsB_S11,BsG_S11,BsR_S11,BbsB_S11,BbsG_S11,BbsR_S11,BaB_A11,BaG_A11,BaR_A11,T_S11,U_S11,P_S11,T1_A11
2020-06-16T00:00:00Z,00000380,20000600,,,,,,,,,,24.5,03.0,0668.0,31.1
2020-06-16T00:01:00Z,00000380,20000600,,,,,,,,,,24.5,03.0,0668.0,31.1
2020-06-16T00:02:00Z,00000380,20000600,,,,,,,,,,24.5,03.0,0668.0,31.1
2020-06-16T00:03:00Z,00000380,60000600,,,,,,,,,,24.5,03.0,0668.1,31.1
2020-06-16T00:04:00Z,00000380,40000600,0001.35,0000.65,0000.92,0000.45,0000.20,-000.07,-000.03,-000.01,0000.01,24.3,02.9,0669.0,31.1
2020-06-16T00:05:00Z,00000380,00000600,0000.56,0001.02,0000.30,0000.55,0000.04,0000.16,-000.06,-000.08,0000.01,24.3,02.9,0669.1,31.1
2020-06-16T00:06:00Z,00000380,00000600,0001.81,0000.77,0000.85,0000.79,0000.57,0000.52,0000.32,-000.01,0000.04,24.3,03.0,0669.1,31.0
2020-06-16T00:07:00Z,00000380,00000600,0002.09,0000.46,0000.37,0000.27,0000.29,-000.09,-000.12,0000.28,-000.18,24.2,02.9,0669.1,31.0
2020-06-16T00:08:00Z,00000380,00000600,0000.72,-000.44,0000.97,0000.44,0000.47,-000.02,-000.12,-000.10,0000.15,24.2,02.9,0669.1,31.0
2020-06-16T00:09:00Z,00000380,00000600,0001.67,0000.80,0000.43,-000.33,0000.33,0000.38,0000.16,-000.09,0000.02,24.2,02.9,0669.1,31.0
2020-06-16T00:10:00Z,00000380,00000600,0000.95,0000.92,0000.68,-000.05,0000.17,0000.81,-000.08,0000.01,0000.05,24.2,03.0,0669.1,31.0
2020-06-16T00:11:00Z,00000380,00000600,0001.48,0001.04,0000.44,-000.30,0000.57,0000.15,-000.02,0000.08,-000.15,24.2,02.9,0669.0,31.0
2020-06-16T00:12:00Z,00000380,00000600,0001.35,0000.67,0000.58,0000.71,0000.31,0000.64,0000.02,-000.13,0000.11,24.2,02.9,0669.1,31.0
2020-06-16T00:13:00Z,00000380,00000600,0001.43,0001.06,0000.18,0000.04,0000.12,-000.61,0000.01,0000.19,0000.00,24.2,02.9,0669.1,31.1
2020-06-16T00:14:00Z,00000380,00000600,0000.74,0000.73,0000.42,-000.25,0000.43,0000.07,0000.08,0000.26,0000.12,24.3,02.9,0669.1,31.1
2020-06-16T00:15:00Z,00000380,00000600,0001.64,0000.93,0000.40,0000.70,0000.30,0000.30,0000.19,-000.10,0000.04,24.3,02.9,0669.1,31.1
2020-06-16T00:16:00Z,00000380,00000600,0001.93,0000.93,0000.58,0000.70,-000.05,-000.27,-000.13,0000.00,0000.07,24.3,02.9,0669.1,31.1
2020-06-16T00:17:00Z,00000380,00000600,0001.45,0000.97,0000.39,0000.46,0000.14,0000.21,0000.29,0000.09,-000.03,24.4,02.9,0669.1,31.1
2020-06-16T00:18:00Z,00000380,00000600,0001.94,0000.37,0000.33,-000.18,0000.30,0000.52,-000.19,-000.05,0000.02,24.4,02.9,0669.0,31.1
2020-06-16T00:19:00Z,00000380,00000600,0002.04,0001.03,0000.21,0001.47,0000.02,0000.40,0000.03,0000.08,-000.03,24.4,02.8,0669.0,31.1
2020-06-16T00:20:00Z,00000380,00000600,0001.06,0000.56,0000.41,0000.59,0000.54,0000.54,0000.10,0000.04,0000.07,24.3,02.8,0669.0,31.1
2020-06-16T00:21:00Z,00000380,00000600,0001.16,0000.49,0000.38,0000.45,-000.09,-000.07,-000.08,0000.02,0000.00,24.3,02.8,0669.1,31.1
2020-06-16T00:22:00Z,00000380,00000600,0001.25,0000.37,0000.47,0000.46,0000.40,0000.00,0000.07,-000.13,-000.06,24.3,02.8,0669.1,31.1
2020-06-16T00:23:00Z,00000380,00000600,0001.39,0001.06,0001.09,0000.61,0000.41,0000.33,0000.05,0000.27,-000.04,24.3,02.8,0669.1,31.1
2020-06-16T00:24:00Z,00000380,00000600,0001.75,0000.90,0000.15,-000.27,0000.20,0000.25,0000.07,0000.10,0000.12,24.3,02.8,0669.1,31.1
2020-06-16T00:25:00Z,00000380,00000600,0001.16,0000.53,0000.73,0000.71,0000.41,0000.19,0000.06,-000.34,0000.11,24.3,02.8,0669.1,31.1
2020-06-16T00:26:00Z,00000380,00000600,0000.60,0000.35,0000.83,-000.83,0000.24,0000.69,-000.17,0000.01,0000.05,24.3,02.8,0669.1,31.1
2020-06-16T00:27:00Z,00000380,00000600,0001.14,0001.00,0000.71,0001.14,0000.39,0000.41,0000.15,0000.17,-000.04,24.3,02.7,0669.1,31.1
2020-06-16T00:28:00Z,00000380,00000600,0000.68,0001.10,0000.53,0001.58,0000.34,0000.14,0000.06,0000.19,0000.03,24.3,02.7,0669.1,31.1
2020-06-16T00:29:00Z,00000380,00000600,0000.34,0000.95,0000.63,0000.38,0000.40,0000.35,-000.09,-000.02,0000.06,24.3,02.7,0669.1,31.1
2020-06-16T00:30:00Z,00000380,00000600,0001.55,0000.78,0000.36,0001.12,0000.43,0000.16,0000.07,-000.21,-000.05,24.3,02.7,0669.1,31.1
2020-06-16T00:31:00Z,00000380,00000600,-000.82,0000.64,0000.41,0001.06,0000.34,-000.06,0000.11,0000.22,-000.03,24.4,02.6,0669.1,31.1
2020-06-16T00:32:00Z,00000380,00000600,0001.47,0000.63,0001.21,0000.53,0000.20,0000.20,0000.04,0000.03,-000.02,24.4,02.7,0669.1,31.1
2020-06-16T00:33:00Z,00000380,00000600,0001.76,0000.80,0000.93,0000.22,0000.12,0000.21,-000.03,0000.08,0000.17,24.3,02.6,0669.1,31.1
2020-06-16T00:34:00Z,00000380,00000600,0001.45,0000.23,0000.59,0000.67,0000.46,-000.13,0000.18,-000.02,0000.11,24.4,02.7,0669.1,31.1
2020-06-16T00:35:00Z,00000380,00000600,0000.96,0000.64,0000.87,0000.10,0000.34,0000.32,-000.05,-000.02,-000.10,24.3,02.6,0669.1,31.1
2020-06-16T00:36:00Z,00000380,00000600,0001.68,0000.13,0000.71,0000.32,0000.02,0000.53,-000.00,0000.09,0000.15,24.3,02.6,0669.1,31.1
2020-06-16T00:37:00Z,00000380,00000600,0000.89,0000.83,0000.35,-000.32,0000.16,0000.49,0000.20,0000.24,-000.04,24.3,02.7,0669.1,31.1
2020-06-16T00:38:00Z,00000380,00000600,0000.95,0001.01,-000.07,0000.43,0000.64,-000.07,-000.01,0000.00,-000.08,24.3,02.6,0669.1,31.1
2020-06-16T00:39:00Z,00000380,00000600,0000.97,0000.68,0000.38,0000.65,0000.08,-000.05,0000.09,-000.04,0000.18,24.3,02.6,0669.1,31.1
2020-06-16T00:40:00Z,00000380,00000600,0000.41,0000.51,0000.26,0000.01,0000.42,0000.30,0000.05,0000.09,0000.02,24.3,02.6,0669.1,31.1
2020-06-16T00:41:00Z,00000380,00000600,0001.15,0000.65,0000.67,0000.62,0000.48,-000.03,0000.01,0000.07,0000.07,24.3,02.6,0669.1,31.1
2020-06-16T00:42:00Z,00000380,00000600,0001.30,0001.34,0000.21,0000.33,0000.09,0000.41,0000.16,-000.05,0000.06,24.3,02.6,0669.1,31.1
2020-06-16T00:43:00Z,00000380,00000600,0001.71,0000.62,0000.62,0000.36,0000.47,0000.59,-000.03,0000.10,0000.17,24.4,02.7,0669.1,31.1
2020-06-16T00:44:00Z,00000380,00000600,0001.60,0000.72,0000.42,0000.67,0000.05,0000.05,-000.12,-000.09,-000.24,24.4,02.7,0669.1,31.1
2020-06-16T00:45:00Z,00000380,00000600,0000.72,0000.41,0000.39,0000.33,0000.11,0000.28,0000.16,0000.23,0000.08,24.4,02.6,0669.1,31.1
2020-06-16T00:46:00Z,00000380,00000600,0001.12,0000.84,0000.15,0000.28,0000.11,0000.39,0000.07,0000.05,0000.22,24.4,02.6,0669.1,31.1
2020-06-16T00:47:00Z,00000380,00000600,0002.38,0000.20,0000.09,0000.63,0000.39,0000.60,0000.02,0000.06,-000.01,24.4,02.6,0669.1,31.1
2020-06-16T00:48:00Z,00000380,00000600,0002.44,0000.65,0000.36,0000.01,0000.11,-000.06,0000.03,-000.02,-000.10,24.4,02.6,0669.2,31.1
2020-06-16T00:49:00Z,00000380,00000600,0001.81,0000.32,0000.49,0000.14,0000.39,0000.13,0000.06,0000.00,0000.07,24.3,02.6,0669.2,31.1
2020-06-16T00:50:00Z,00000380,00000600,0001.76,0000.90,-000.08,0001.02,0000.53,-000.25,-000.00,-000.10,-000.00,24.3,02.6,0669.2,31.1
2020-06-16T00:51:00Z,00000380,00000600,0000.82,0001.15,0000.53,0000.58,0000.29,0000.00,0000.22,-000.03,0000.04,24.3,02.6,0669.2,31.1
2020-06-16T00:52:00Z,00000380,00000600,0001.20,-000.10,0000.43,0000.57,0000.16,0000.78,-000.00,0000.15,-000.03,24.3,02.6,0669.2,31.0
2020-06-16T00:53:00Z,00000380,00000600,0000.84,0000.77,0001.01,0000.65,0000.16,0000.48,0000.02,0000.02,0000.03,24.3,02.6,0669.2,31.1
2020-06-16T00:54:00Z,00000380,00000600,0001.70,0000.64,0000.75,0000.85,0000.61,0000.45,-000.10,0000.23,-000.12,24.3,02.6,0669.2,31.1
2020-06-16T00:55:00Z,00000380,00000600,0001.25,0001.25,0000.64,-000.13,0000.24,0000.33,-000.02,-000.11,0000.28,24.3,02.5,0669.2,31.1
2020-06-16T00:56:00Z,00000380,00000600,0002.17,0000.72,0000.53,0000.88,0000.27,0000.12,0000.07,-000.14,0000.10,24.3,02.6,0669.2,31.1
2020-06-16T00:57:00Z,00000380,40000600,,,,,,,,,,24.4,02.2,0669.2,31.1
2020-06-16T00:58:00Z,00000380,60000600,,,,,,,,,,24.5,02.6,0668.2,31.1
2020-06-16T00:59:00Z,00000380,20000600,,,,,,,,,,24.6,02.4,0668.2,31.1
2020-06-16T01:00:00Z,00000380,20000600,,,,,,,,,,24.6,02.4,0668.2,31.1
2020-06-16T01:01:00Z,00000380,20000600,,,,,,,,,,24.6,02.4,0668.2,31.1
2020-06-16T01:02:00Z,00000380,20000600,,,,,,,,,,24.6,02.4,0668.2,31.0
2020-06-16T01:03:00Z,00000380,60000600,,,,,,,,,,24.6,02.4,0668.2,31.1
2020-06-16T01:04:00Z,00000380,40000600,0001.12,0000.54,0000.54,-000.45,0000.50,0000.38,-000.04,0000.14,-000.10,24.4,02.5,0669.1,31.1
2020-06-16T01:05:00Z,00000380,00000600,0001.43,0000.34,0000.15,0000.08,0000.56,-000.08,0000.18,0000.08,0000.07,24.3,02.5,0669.2,31.1
2020-06-16T01:06:00Z,00000380,00000600,0001.74,0000.91,0000.46,0001.81,0000.36,-000.07,0000.03,0000.17,0000.09,24.3,02.5,0669.2,31.1
2020-06-16T01:07:00Z,00000380,00000600,-000.01,0000.96,0000.25,-000.76,-000.12,-000.45,0000.05,-000.04,0000.01,24.3,02.6,0669.2,31.1
2020-06-16T01:08:00Z,00000380,00000600,0001.55,-000.08,0000.44,-000.31,-000.10,0000.20,-000.12,0000.02,0000.02,24.3,02.5,0669.3,31.1
2020-06-16T01:09:00Z,00000380,00000600,0001.46,0000.26,0000.73,0000.58,0000.07,0000.23,0000.09,0000.04,0000.10,24.3,02.6,0669.3,31.0
2020-06-16T01:10:00Z,00000380,00000600,0001.05,0000.02,0000.76,-000.17,-000.28,0000.05,0000.07,0000.06,-000.04,24.3,02.5,0669.3,31.1
2020-06-16T01:11:00Z,00000380,00000600,0000.77,0000.65,0000.46,0000.96,0000.29,0000.10,-000.05,-000.09,0000.08,24.3,02.5,0669.3,31.1
2020-06-16T01:12:00Z,00000380,00000600,0001.10,0000.52,0001.01,0000.27,0000.18,0000.07,0000.37,0000.13,0000.03,24.3,02.6,0669.2,31.0
2020-06-16T01:13:00Z,00000380,00000600,0000.72,0000.26,0000.95,0000.85,0000.61,0000.42,-000.15,-000.10,-000.02,24.3,02.5,0669.3,31.1
2020-06-16T01:14:00Z,00000380,00000600,0000.97,0000.38,0000.97,0000.19,0000.11,0000.55,-000.08,0000.20,0000.03,24.3,02.5,0669.3,31.1
2020-06-16T01:15:00Z,00000380,00000600,0001.34,0000.06,0000.84,0000.46,0000.19,0000.18,0000.06,-000.05,0000.10,24.4,02.5,0669.3,31.1
2020-06-16T01:16:00Z,00000380,00000600,0000.40,0001.19,0001.31,0000.84,0000.18,0000.54,0000.12,0000.04,0000.04,24.4,02.5,0669.2,31.1
2020-06-16T01:17:00Z,00000380,00000600,0002.37,0000.51,0000.68,0000.02,-000.06,0000.60,-000.04,0000.01,-000.02,24.4,02.5,0669.2,31.1
2020-06-16T01:18:00Z,00000380,00000600,0001.59,0000.82,-000.02,0000.15,0000.61,-000.09,-000.02,0000.26,0000.02,24.4,02.5,0669.3,31.1
2020-06-16T01:19:00Z,00000380,00000600,0002.04,0000.90,0000.46,0000.46,0000.11,0000.00,0000.18,-000.06,0000.08,24.4,02.4,0669.2,31.1
2020-06-16T01:20:00Z,00000380,00000600,0002.07,0000.59,0000.23,0000.38,0000.28,-000.51,-000.15,-000.12,-000.15,24.4,02.4,0669.2,31.1
2020-06-16T01:21:00Z,00000380,00000600,0000.82,0000.48,0000.31,0000.02,-000.04,0000.45,0000.16,0000.01,0000.09,24.3,02.5,0669.3,31.1
2020-06-16T01:22:00Z,00000380,00000600,0001.03,0000.08,0000.87,0000.33,0000.11,0000.40,-000.03,-000.02,0000.01,24.3,02.4,0669.2,31.1
2020-06-16T01:23:00Z,00000380,00000600,0001.16,0001.04,0000.46,0000.01,-000.21,-000.28,0000.07,0000.15,-000.06,24.3,02.4,0669.2,31.1
2020-06-16T01:24:00Z,00000380,00000600,0002.00,0000.44,0000.40,0000.10,0000.46,0000.47,-000.01,-000.06,0000.18,24.3,02.5,0669.2,31.1
2020-06-16T01:25:00Z,00000380,00000600,0001.09,0000.23,0000.72,0000.35,0000.16,0000.02,-000.06,0000.31,-000.07,24.3,02.5,0669.2,31.1
2020-06-16T01:26:00Z,00000380,00000600,0001.86,0001.19,0000.85,0000.44,0000.17,0000.24,0000.13,-000.41,0000.04,24.3,02.4,0669.2,31.1
2020-06-16T01:27:00Z,00000380,00000600,0000.80,0000.71,0000.32,0000.82,-000.25,0000.11,0000.01,0000.36,0000.03,24.3,02.4,0669.2,31.1
2020-06-16T01:28:00Z,00000380,00000600,0001.55,0000.35,0001.00,0000.47,0000.56,0000.04,0000.16,0000.04,0000.12,24.3,02.4,0669.2,31.1
2020-06-16T01:29:00Z,00000380,00000600,0001.48,0000.32,0001.26,-000.45,0000.66,-000.02,0000.01,0000.14,0000.05,24.4,02.4,0669.2,31.1
2020-06-16T01:30:00Z,00000380,00000600,0000.92,0001.13,0000.82,0000.03,0000.25,0000.49,0000.03,-000.07,0000.02,24.4,02.3,0669.2,31.1
2020-06-16T01:31:00Z,00000380,00000600,0001.75,0000.11,0000.74,0000.67,0000.30,0000.08,0000.04,0000.19,-000.08,24.4,02.4,0669.2,31.1
2020-06-16T01:32:00Z,00000380,00000600,0000.69,0000.60,0000.91,0000.65,0000.44,-000.00,-000.13,-000.05,0000.23,24.4,02.4,0669.2,31.1
2020-06-16T01:33:00Z,00000380,00000600,0001.47,0000.88,0000.81,0000.16,0000.27,0000.07,0000.12,0000.01,-000.15,24.4,02.4,0669.1,31.1
2020-06-16T01:34:00Z,00000380,00000600,0000.96,0000.33,0000.80,0000.45,0000.02,-000.04,0000.10,-000.06,-000.03,24.4,02.4,0669.1,31.1
2020-06-16T01:35:00Z,00000380,00000600,0002.55,0001.33,0000.62,-000.63,0000.10,0000.10,0000.12,0000.23,0000.17,24.4,02.3,0669.1,31.1
2020-06-16T01:36:00Z,00000380,00000600,0001.63,0000.62,0000.72,0000.34,0000.30,0000.09,-000.01,-000.01,0000.05,24.3,02.4,0669.1,31.1
2020-06-16T01:37:00Z,00000380,00000600,0001.21,0000.41,0000.31,-000.66,-000.08,-000.09,0000.00,-000.06,-000.03,24.3,02.4,0669.2,31.1
2020-06-16T01:38:00Z,00000380,00000600,0001.82,0000.61,0000.52,0000.46,0000.13,0000.39,0000.04,-000.04,-000.02,24.3,02.4,0669.1,31.1
2020-06-16T01:39:00Z,00000380,00000600,0001.16,0000.75,-000.02,-000.14,0000.19,0000.31,0000.04,0000.20,0000.13,24.3,02.4,0669.2,31.1
2020-06-16T01:40:00Z,00000380,00000600,0001.06,0000.13,0000.30,0000.92,-000.22,0000.21,0000.00,0000.01,0000.02,24.3,02.4,0669.2,31.1
2020-06-16T01:41:00Z,00000380,00000600,0001.07,0000.16,0000.59,0000.08,0000.57,-000.18,-000.12,-000.18,0000.13,24.3,02.4,0669.2,31.1
2020-06-16T01:42:00Z,00000380,00000600,0000.33,0000.35,0000.13,-000.11,0000.18,0000.07,0000.16,0000.05,-000.37,24.3,02.4,0669.2,31.1
2020-06-16T01:43:00Z,00000380,00000600,0001.69,0000.42,0000.66,-000.81,0000.24,0000.26,0000.07,0000.32,0000.37,24.3,02.4,0669.2,31.1
2020-06-16T01:44:00Z,00000380,00000600,0000.80,0000.68,0000.54,-000.15,0000.14,0000.30,-000.07,-000.11,-000.08,24.4,02.4,0669.2,31.1
2020-06-16T01:45:00Z,00000380,00000600,0000.29,0000.61,0000.20,0000.64,0000.17,0000.25,0000.30,0000.05,-000.06,24.3,02.4,0669.2,31.1
2020-06-16T01:46:00Z,00000380,00000600,0001.60,0001.05,0000.48,-000.44,0000.27,0000.27,-000.34,-000.04,0000.10,24.4,02.4,0669.2,31.1
2020-06-16T01:47:00Z,00000380,00000600,0001.99,0000.73,0000.57,0000.48,0000.07,0000.35,0000.20,-000.12,-000.04,24.3,02.3,0669.2,31.1
2020-06-16T01:48:00Z,00000380,00000600,0000.84,0000.26,0000.53,0000.41,0000.04,0000.61,-000.18,0000.23,-000.09,24.4,02.4,0669.2,31.1
2020-06-16T01:49:00Z,00000380,00000600,0001.83,0000.73,0000.38,0000.34,0000.58,0000.25,0000.19,-000.12,0000.06,24.3,02.3,0669.2,31.1
2020-06-16T01:50:00Z,00000380,00000600,0001.18,0000.72,0000.90,0001.39,0000.19,0000.06,0000.02,0000.11,0000.06,24.4,02.3,0669.2,31.1
2020-06-16T01:51:00Z,00000380,00000600,0002.50,0000.23,0000.57,0000.55,-000.00,-000.01,0000.01,0000.11,0000.06,24.3,02.3,0669.2,31.1
2020-06-16T01:52:00Z,00000380,00000600,0001.40,0000.06,0001.02,0002.02,0000.04,0000.17,-000.05,-000.04,0000.12,24.3,02.3,0669.2,31.1
2020-06-16T01:53:00Z,00000380,00000600,0000.65,0001.17,0000.94,0001.05,0000.32,0000.53,0000.04,-000.16,-000.09,24.3,02.3,0669.2,31.1
2020-06-16T01:54:00Z,00000380,00000600,0001.65,0000.62,0000.73,-000.58,-000.06,-000.01,-000.12,0000.02,-000.08,24.3,02.3,0669.2,31.1
2020-06-16T01:55:00Z,00000380,00000600,0000.86,0000.38,0000.19,0000.02,0000.10,0000.52,0000.15,0000.16,0000.02,24.3,02.3,0669.1,31.1
2020-06-16T01:56:00Z,00000380,00000600,0001.39,0000.71,0000.44,-000.25,-000.28,0000.12,0000.00,-000.04,0000.14,24.3,02.3,0669.1,31.1
2020-06-16T01:57:00Z,00000380,40000600,,,,,,,,,,24.3,02.4,0669.1,31.1
2020-06-16T01:58:00Z,00000380,60000600,,,,,,,,,,24.5,02.1,0668.1,31.1
2020-06-16T01:59:00Z,00000380,20000600,,,,,,,,,,24.6,02.1,0668.1,31.1
2020-06-16T02:00:00Z,00000380,20000600,,,,,,,,,,24.6,02.1,0668.1,31.1
2020-06-16T02:01:00Z,00000380,20000600,,,,,,,,,,24.6,02.1,0668.1,31.1
2020-06-16T02:02:00Z,00000380,20000600,,,,,,,,,,24.6,02.1,0668.1,31.1
2020-06-16T02:03:00Z,00000380,60000600,,,,,,,,,,24.6,02.1,0668.1,31.1
2020-06-16T02:04:00Z,00000380,40000600,0000.33,0000.04,-000.04,0000.27,-000.17,-000.10,0000.07,-000.09,-000.02,24.5,02.2,0669.0,31.1
2020-06-16T02:05:00Z,00000380,00000600,-001.06,0000.85,0000.13,0000.03,0000.30,0000.21,0000.01,0000.15,0000.00,24.4,02.2,0669.1,31.1
2020-06-16T02:06:00Z,00000380,00000600,0002.13,0000.92,0000.02,0000.11,0000.51,0000.33,0000.09,0000.15,0000.04,24.4,02.2,0669.1,31.1
2020-06-16T02:07:00Z,00000380,00000600,0000.47,0001.22,0000.24,0001.13,0000.45,0000.32,0000.07,-000.17,-000.05,24.4,02.2,0669.1,31.1
2020-06-16T02:08:00Z,00000380,00000600,0001.55,0001.08,0000.03,0001.35,0000.03,-000.05,-000.01,0000.17,0000.14,24.4,02.2,0669.1,31.0
2020-06-16T02:09:00Z,00000380,00000600,0000.66,0000.09,0000.07,0000.26,-000.05,0000.06,0000.13,0000.16,0000.02,24.4,02.2,0669.1,31.1
2020-06-16T02:10:00Z,00000380,00000600,0001.47,0001.32,0000.68,-000.47,0000.54,0000.37,0000.05,-000.17,0000.11,24.4,02.2,0669.1,31.1
2020-06-16T02:11:00Z,00000380,00000600,0000.49,0000.75,0000.76,0000.68,0000.28,0000.38,0000.05,0000.05,0000.09,24.3,02.2,0669.1,31.1
2020-06-16T02:12:00Z,00000380,00000600,0001.88,0000.93,0000.58,0000.54,0000.35,0000.55,0000.06,0000.05,-000.10,24.3,02.3,0669.1,31.1
2020-06-16T02:13:00Z,00000380,00000600,0000.63,-000.12,0000.04,0001.35,0000.25,-000.44,0000.20,0000.16,0000.10,24.3,02.3,0669.1,31.1
2020-06-16T02:14:00Z,00000380,00000600,0001.19,0001.33,0000.64,0000.65,0000.04,0000.23,-000.19,-000.05,-000.05,24.4,02.2,0669.0,31.1
2020-06-16T02:15:00Z,00000380,00000600,0001.00,0000.50,0000.64,0000.84,-000.06,0000.07,0000.17,0000.12,0000.12,24.4,02.3,0669.1,31.0
2020-06-16T02:16:00Z,00000380,00000600,0001.24,0000.45,0000.59,0001.15,0000.23,0000.43,-000.02,0000.12,-000.05,24.4,02.2,0669.1,31.1
2020-06-16T02:17:00Z,00000380,00000600,0001.27,0001.04,0000.02,0000.94,-000.43,0000.11,0000.08,-000.11,-000.07,24.4,02.2,0669.1,31.1
2020-06-16T02:18:00Z,00000380,00000600,0000.95,0001.10,0000.65,0000.43,0000.37,0000.34,-000.02,-000.00,0000.10,24.4,02.2,0669.1,31.1
2020-06-16T02:19:00Z,00000380,00000600,0002.53,0000.78,0000.40,0000.85,0000.31,-000.17,-000.11,0000.02,0000.06,24.4,02.2,0669.1,31.1
2020-06-16T02:20:00Z,00000380,00000600,0000.04,0000.87,0000.44,0000.84,0000.00,0000.30,0000.08,0000.01,0000.05,24.3,02.2,0669.1,31.1
2020-06-16T02:21:00Z,00000380,00000600,0001.15,0000.77,0000.80,0000.54,0000.22,0000.23,0000.06,0000.01,-000.10,24.4,02.2,0669.1,31.1
2020-06-16T02:22:00Z,00000380,00000600,0000.46,0000.96,0000.88,0000.81,0000.17,0000.19,0000.15,0000.16,0000.20,24.3,02.2,0669.1,31.1
2020-06-16T02:23:00Z,00000380,00000600,0000.07,0000.91,0000.18,0000.40,0000.66,-000.18,-000.07,0000.19,-000.05,24.3,02.2,0669.1,31.1
2020-06-16T02:24:00Z,00000380,00000600,0001.50,0000.79,0000.08,0000.50,0000.11,0000.01,0000.08,-000.01,0000.07,24.3,02.2,0669.1,31.1
2020-06-16T02:25:00Z,00000380,00000600,-000.56,0000.90,0000.30,0000.98,0000.07,0000.14,0000.01,0000.03,0000.02,24.3,02.2,0669.1,31.1
2020-06-16T02:26:00Z,00000380,00000600,0001.76,0000.80,0000.97,0000.31,0000.18,0000.11,-000.09,-000.34,-000.02,24.3,02.2,0669.1,31.0
2020-06-16T02:27:00Z,00000380,00000600,0000.74,0000.82,0000.21,0000.46,0000.19,0000.49,0000.29,0000.26,0000.08,24.3,02.1,0669.1,31.0
2020-06-16T02:28:00Z,00000380,00000600,0001.39,0000.94,0000.61,-000.29,0000.09,0000.28,0000.06,0000.08,0000.09,24.3,02.2,0669.0,31.1
2020-06-16T02:29:00Z,00000380,00000600,0001.51,0000.76,0000.67,0000.25,0000.01,-000.00,-000.09,0000.04,-000.04,24.4,02.2,0669.1,31.1
2020-06-16T02:30:00Z,00000380,00000600,0001.47,0001.10,0000.07,0000.50,0000.47,0000.01,0000.12,-000.02,0000.02,24.4,02.2,0669.0,31.1
2020-06-16T02:31:00Z,00000380,00000600,0000.89,0000.80,0000.36,0000.61,0000.15,0000.11,0000.09,0000.27,0000.30,24.4,02.2,0669.0,31.1
2020-06-16T02:32:00Z,00000380,00000600,0001.47,0000.45,-000.14,0000.25,-000.07,-000.10,0000.03,-000.11,-000.13,24.4,02.2,0669.0,31.1
2020-06-16T02:33:00Z,00000380,00000600,0001.29,0000.23,0000.79,0000.62,0000.19,0000.09,-000.01,0000.17,0000.03,24.4,02.2,0669.0,31.1
2020-06-16T02:34:00Z,00000380,00000600,0000.60,0001.16,0000.68,0000.30,-000.19,0000.18,0000.09,0000.01,-000.04,24.4,02.3,0669.0,31.1
2020-06-16T02:35:00Z,00000380,00000600,0000.80,0000.67,-000.11,0001.51,-000.14,-000.39,0000.02,0000.07,0000.01,24.3,02.3,0669.0,31.0
2020-06-16T02:36:00Z,00000380,00000600,0001.11,0000.58,0000.44,0000.12,0000.19,-000.03,0000.27,0000.13,0000.30,24.3,02.2,0669.0,31.1
2020-06-16T02:37:00Z,00000380,00000600,0001.78,0000.60,0000.79,0000.57,0000.32,-000.15,-000.20,0000.03,-000.07,24.3,02.2,0669.0,31.1
2020-06-16T02:38:00Z,00000380,00000600,-001.09,-000.06,0001.23,0000.94,0000.34,0000.12,0000.16,-000.08,-000.09,24.3,02.2,0669.0,31.1
2020-06-16T02:39:00Z,00000380,00000600,0000.92,0001.15,0000.26,0000.23,-000.01,-000.04,0000.01,0000.09,0000.18,24.3,02.2,0669.0,31.1
2020-06-16T02:40:00Z,00000380,00000600,0001.21,0001.01,0000.57,0000.62,0000.49,0000.03,0000.00,-000.14,-000.15,24.3,02.2,0669.0,31.1
2020-06-16T02:41:00Z,00000380,00000600,0000.32,0000.51,0000.89,0000.76,0000.22,0000.58,0000.01,0000.03,0000.05,24.3,02.2,0669.1,31.1
2020-06-16T02:42:00Z,00000380,00000600,0000.61,0001.08,0000.26,0000.27,0000.28,0000.24,0000.16,0000.03,-000.05,24.3,02.2,0669.0,31.1
2020-06-16T02:43:00Z,00000380,00000600,0000.94,0001.22,0000.37,0001.56,-000.17,-000.29,0000.02,0000.05,0000.18,24.3,02.2,0669.1,31.1
2020-06-16T02:44:00Z,00000380,00000600,0001.62,0001.11,0000.74,-000.26,0000.54,-000.08,0000.03,0000.29,0000.00,24.4,02.2,0669.0,31.1
2020-06-16T02:45:00Z,00000380,00000600,0001.98,0000.66,0001.13,0000.14,0000.49,0000.19,0000.02,-000.01,0000.05,24.4,02.2,0669.0,31.1
2020-06-16T02:46:00Z,00000380,00000600,0001.19,0001.05,0000.12,0000.32,-000.49,0000.10,-000.03,-000.01,-000.01,24.4,02.2,0669.0,31.1
2020-06-16T02:47:00Z,00000380,00000600,0000.65,0000.76,0000.34,0000.87,0000.45,-000.04,0000.26,0000.03,0000.14,24.4,02.2,0669.0,31.1
2020-06-16T02:48:00Z,00000380,00000600,0001.16,0000.60,0000.17,-000.16,0000.16,0000.00,-000.05,-000.01,-000.14,24.4,02.2,0669.0,31.1
2020-06-16T02:49:00Z,00000380,00000600,0001.04,0000.56,0000.22,0000.97,-000.11,0000.22,-000.09,-000.08,-000.05,24.4,02.1,0669.1,31.1
2020-06-16T02:50:00Z,00000380,00000600,-000.23,0001.36,0000.68,0000.40,0000.10,0000.21,0000.22,-000.01,0000.23,24.4,02.2,0669.1,31.1
2020-06-16T02:51:00Z,00000380,00000600,0000.12,0000.78,0000.40,0001.06,0000.41,0000.49,-000.21,0000.12,-000.02,24.3,02.2,0669.1,31.1
2020-06-16T02:52:00Z,00000380,00000600,0001.90,0000.98,0000.46,0001.72,0000.17,0000.31,0000.12,0000.03,-000.06,24.3,02.2,0669.1,31.1
2020-06-16T02:53:00Z,00000380,00000600,0000.44,0001.14,0000.84,0000.64,-000.12,0000.30,0000.17,-000.01,0000.12,24.3,02.2,0669.1,31.1
2020-06-16T02:54:00Z,00000380,00000600,0000.70,0000.61,0000.34,0000.24,-000.10,0000.10,-000.11,0000.14,-000.07,24.3,02.1,0669.1,31.1
2020-06-16T02:55:00Z,00000380,00000600,0001.28,0000.69,0000.50,0001.42,0000.22,0000.02,0000.16,0000.08,-000.07,24.3,02.1,0669.1,31.1
2020-06-16T02:56:00Z,00000380,00000600,0002.27,0000.89,-000.30,0001.24,0000.29,-000.10,-000.11,-000.28,0000.26,24.3,02.1,0669.1,31.1
2020-06-16T02:57:00Z,00000380,40000600,,,,,,,,,,24.3,02.1,0669.0,31.1
2020-06-16T02:58:00Z,00000380,60000600,,,,,,,,,,24.5,02.1,0668.0,31.1
2020-06-16T02:59:00Z,00000380,20000600,,,,,,,,,,24.6,02.1,0668.0,31.1
2020-06-16T03:00:00Z,00000380,20000600,,,,,,,,,,24.5,02.1,0668.0,31.1
2020-06-16T03:01:00Z,00000380,20000600,,,,,,,,,,24.6,02.1,0668.0,31.1
2020-06-16T03:02:00Z,00000380,20000600,,,,,,,,,,24.6,02.1,0668.0,31.1
2020-06-16T03:03:00Z,00000380,60000600,,,,,,,,,,24.6,02.1,0668.0,31.1
2020-06-16T03:04:00Z,00000380,40000600,0001.76,0001.14,0000.90,0000.18,0000.27,-000.21,0000.21,0000.01,0000.01,24.4,02.1,0669.0,31.1
2020-06-16T03:05:00Z,00000380,00000600,0000.73,0001.22,0000.41,-000.23,0000.09,0000.30,-000.05,0000.03,0000.20,24.4,02.1,0669.0,31.1
2020-06-16T03:06:00Z,00000380,00000600,0001.37,0000.80,0000.52,-000.13,-000.04,-000.35,0000.16,0000.04,-000.11,24.4,02.1,0669.0,31.1
2020-06-16T03:07:00Z,00000380,00000600,0002.07,0001.18,0000.73,-000.05,0000.08,0000.29,-000.04,0000.13,0000.17,24.3,02.1,0669.0,31.1
2020-06-16T03:08:00Z,00000380,00000600,0002.48,0000.61,0000.54,0000.46,0000.02,0000.12,-000.05,-000.01,-000.22,24.3,02.2,0669.0,31.1
2020-06-16T03:09:00Z,00000380,00000600,0002.64,0000.52,0000.57,-000.40,-000.24,-000.14,0000.22,0000.10,0000.14,24.3,02.2,0669.0,31.1
2020-06-16T03:10:00Z,00000380,00000600,0001.08,0000.65,0000.22,0000.06,0000.20,-000.18,0000.02,0000.06,0000.04,24.3,02.2,0669.0,31.0